User: anonymous   Login
Location: Caltech
(34.1382°N, 118.1253°W)
Time: 21:52:56
(UTC-08:00)
Language:

ALOS - Orbit

View from above orbital plane
View from above orbital plane
View from above satellite
View from above satellite

Ground track
Ground track

The orbit data is extracted from the following two-line orbital elements,

1 28931U 06002A   16044.18918808  .00000514  00000-0  11103-3 0  9998
2 28931  97.9020  88.5495 0002400  79.8144 280.3331 14.62118909535857
Epoch (UTC): 13 February 2016 04:32:25
Eccentricity: 0.0002400
inclination: 97.9020°
perigee height: 684 km
apogee height: 688 km
right ascension of ascending node: 88.5495°
argument of perigee: 79.8144°
revolutions per day: 14.62118909
mean anomaly at epoch: 280.3331°
orbit number at epoch: 53585

The dashed part of the orbit path shows where the satellite is in the earth's shadow,  

DLR